国际通讯卫星 4-F4星 (INTELSAT 4-F4)

导读 | 星芒AI

INTELSAT 4-F4 是一颗由美国洛克希德公司制造的通信卫星,于1974年11月10日发射。它是INTELSAT IV系列的一部分,主要用于跨大西洋的国际通信服务。该卫星搭载了12个C波段转发器,支持电话、电视和数据传输。F4是该系列中成功进入轨道的第四颗卫星,标志着当时卫星通信技术的重要进展。尽管最终被更先进的卫星取代,INTELSAT 4-F4 在推动全球通信网络发展方面发挥了关键作用。

基本信息
目录编号:
5775
目录名称:
INTELSAT 4-F4
国际标识:
1972-003A
轨道中心:
EARTH
卫星名称:
国际通讯卫星 4-F4星
卫星全名:
国际通讯卫星 4-F4星 (INTELSAT 4-F4)
卫星状态:
在轨 (已飞行19685 天)
发射日期:
1972-01-23 UTC
国别 :
(ITSO)
星等 :
--
轨道信息
数据来源 国际轨道数据 AOE轨道数据
星历时间 2025-12-14T15:00:19+0800
1天前
查看轨道信息
2025-12-12T01:00:00+0800
3天前
查看轨道信息
半长轴 42291.099km 42290.647km
偏心率 0.0000406 0.0000196
轨道倾角 7.180° 7.187°
近地点辐角 5.606° 359.640°
升交点赤经 295.924° 295.946°
平近点角 338.093° 135.587°
近地点 35911.246km 35911.683km
远地点 35914.682km 35913.341km
周期 1442.558分钟 1442.535分钟
每日圈数 0.998227 0.998243
详细信息
卫星平台:
HS-353
平衡模式:
自旋稳定
覆盖范围:
全球
运营商:
国际卫星通信公司
运营商所在国:
美国
制造商(研发单位):
休斯公司
制造商所在国:
美国
使用方式:
暂无
卫星简介
从1965年4月至1984年3月,国际通信卫星组织发射了5代、6种不同性能的卫星共计35颗,除6颗卫星因运载火箭和远地点发动机故障而发射失败外,其余29颗卫星均被送到了预定的静止轨道位置。1984年8月前后,国际通信卫星组织利用部署在大西洋、太平洋、印度洋上空的15颗国际通信卫星,为遍布世界各地170多个国家或地区提供电话、电传、电报、电视和数据传输等电信业务;该卫星已退役。
2D轨道图
3D轨道图
轨道高度分析图
轨道倾角分析图
轨道综合分析图
查看轨道综合分析图